When you browse on this site, cookies collect data to enhance your experience and personalize the content and advertising you see.
Visit our Privacy Policy to learn more. By continuing to use the site, you agree to this use of cookies and data.
  • Em Portugal
  • Lista de países
  • Para 7 dias
  • Temperatura da água
  • Mapas de satélite
  • Mapa do tempo
  • Widgets de tempo
  • user-avatar
    Iniciar Sessão

    Previsão horária em Stojanowice

    Hoje, 22 Março, Sexta-feira

    Tempo Temperatura Precipitação Vento Pressão Humidade
    00:00 +7°C° 0 mm 2 m/s 755 mmHg 86%
    01:00 +7°C° 0 mm 3 m/s 755 mmHg 88%
    02:00 +7°C° 0 mm 3 m/s 755 mmHg 87%
    03:00 +7°C° 0 mm 3 m/s 755 mmHg 86%
    04:00 +7°C° 0 mm 3 m/s 754 mmHg 86%
    05:00 +8°C° 0 mm 3 m/s 754 mmHg 85%
    06:00 +8°C° 0 mm 3 m/s 754 mmHg 84%
    07:00 +9°C° 0 mm 3 m/s 755 mmHg 83%
    08:00 +9°C° 0 mm 3 m/s 755 mmHg 82%
    09:00 +9°C° 0 mm 3 m/s 755 mmHg 82%
    10:00 +10°C° 0 mm 3 m/s 755 mmHg 81%
    11:00 +10°C° 0 mm 3 m/s 755 mmHg 78%
    12:00 +11°C° 0 mm 3 m/s 755 mmHg 75%
    13:00 +12°C° 0 mm 3 m/s 755 mmHg 72%
    14:00 +12°C° 0 mm 3 m/s 754 mmHg 71%
    15:00 +13°C° 0 mm 2 m/s 754 mmHg 70%
    16:00 +13°C° 0 mm 2 m/s 754 mmHg 68%
    17:00 +13°C° 0 mm 2 m/s 754 mmHg 72%
    18:00 +12°C° 0 mm 2 m/s 754 mmHg 75%
    19:00 +11°C° 0 mm 1 m/s 754 mmHg 79%
    20:00 +9°C° 0 mm 2 m/s 754 mmHg 81%
    21:00 +9°C° 0 mm 2 m/s 754 mmHg 83%
    22:00 +8°C° 0 mm 2 m/s 754 mmHg 85%
    23:00 +7°C° 0 mm 2 m/s 754 mmHg 87%

    Amanhã, 23 Março, Sábado

    Tempo Temperatura Precipitação Vento Pressão Humidade
    00:00 +7°C° 0 mm 1 m/s 754 mmHg 88%
    01:00 +7°C° 0 mm 1 m/s 754 mmHg 90%
    02:00 +6°C° 0 mm 1 m/s 753 mmHg 90%
    03:00 +6°C° 0 mm 1 m/s 753 mmHg 91%
    04:00 +6°C° 0 mm 1 m/s 753 mmHg 91%
    05:00 +6°C° 0 mm 1 m/s 753 mmHg 90%
    06:00 +6°C° 0 mm 1 m/s 753 mmHg 88%
    07:00 +7°C° 0 mm 1 m/s 753 mmHg 87%
    08:00 +7°C° 0 mm 2 m/s 753 mmHg 78%
    09:00 +9°C° 0 mm 2 m/s 752 mmHg 69%
    10:00 +12°C° 0 mm 2 m/s 752 mmHg 60%
    11:00 +13°C° 0 mm 2 m/s 752 mmHg 54%
    12:00 +14°C° 0 mm 2 m/s 752 mmHg 49%
    13:00 +15°C° 0 mm 2 m/s 751 mmHg 43%
    14:00 +15°C° 0 mm 2 m/s 751 mmHg 42%
    15:00 +16°C° 0 mm 1 m/s 750 mmHg 41%
    16:00 +16°C° 0 mm 1 m/s 750 mmHg 40%
    17:00 +14°C° 0 mm 1 m/s 750 mmHg 43%
    18:00 +13°C° 0 mm 1 m/s 750 mmHg 47%
    19:00 +12°C° 0 mm 1 m/s 750 mmHg 51%
    20:00 +11°C° 0 mm 1 m/s 750 mmHg 53%
    21:00 +11°C° 0 mm 1 m/s 750 mmHg 56%
    22:00 +9°C° 0 mm 2 m/s 750 mmHg 58%
    23:00 +9°C° 0 mm 2 m/s 750 mmHg 63%

    Depois de amanhã, 24 Março, Domingo

    Tempo Temperatura Precipitação Vento Pressão Humidade
    00:00 +9°C° 0 mm 2 m/s 749 mmHg 69%
    01:00 +9°C° 0 mm 2 m/s 749 mmHg 75%
    02:00 +9°C° 0 mm 2 m/s 749 mmHg 77%
    03:00 +9°C° 0 mm 2 m/s 749 mmHg 79%
    04:00 +9°C° 0 mm 2 m/s 749 mmHg 82%
    05:00 +9°C° 0.1 mm 3 m/s 749 mmHg 84%
    06:00 +9°C° 0.1 mm 3 m/s 749 mmHg 86%
    07:00 +8°C° 0.1 mm 3 m/s 749 mmHg 89%
    08:00 +9°C° 0.1 mm 3 m/s 750 mmHg 80%
    09:00 +10°C° 0.1 mm 3 m/s 750 mmHg 71%
    10:00 +10°C° 0.1 mm 3 m/s 750 mmHg 62%
    11:00 +11°C° 0 mm 3 m/s 749 mmHg 57%
    12:00 +12°C° 0 mm 3 m/s 749 mmHg 52%
    13:00 +13°C° 0 mm 3 m/s 749 mmHg 47%
    14:00 +12°C° 0 mm 4 m/s 748 mmHg 46%
    15:00 +12°C° 0 mm 4 m/s 748 mmHg 44%
    16:00 +11°C° 0 mm 4 m/s 748 mmHg 43%
    17:00 +11°C° 0 mm 3 m/s 748 mmHg 43%
    18:00 +10°C° 0 mm 3 m/s 748 mmHg 44%
    19:00 +9°C° 0 mm 2 m/s 748 mmHg 44%
    20:00 +8°C° 0 mm 2 m/s 748 mmHg 48%
    21:00 +7°C° 0 mm 2 m/s 748 mmHg 53%
    22:00 +6°C° 0 mm 2 m/s 748 mmHg 57%
    23:00 +5°C° 0 mm 2 m/s 748 mmHg 59%

    25 Março, Segunda-feira

    Tempo Temperatura Precipitação Vento Pressão Humidade
    00:00 +5°C° 0 mm 2 m/s 748 mmHg 61%
    01:00 +4°C° 0 mm 2 m/s 748 mmHg 64%
    02:00 +4°C° 0 mm 2 m/s 747 mmHg 65%
    03:00 +4°C° 0 mm 2 m/s 747 mmHg 66%
    04:00 +3°C° 0 mm 2 m/s 747 mmHg 67%
    05:00 +3°C° 0 mm 3 m/s 747 mmHg 66%
    06:00 +3°C° 0 mm 3 m/s 746 mmHg 64%
    07:00 +4°C° 0 mm 4 m/s 746 mmHg 62%
    08:00 +5°C° 0 mm 4 m/s 746 mmHg 58%
    09:00 +6°C° 0 mm 5 m/s 746 mmHg 54%
    10:00 +7°C° 0 mm 6 m/s 745 mmHg 50%
    11:00 +6°C° 0 mm 7 m/s 744 mmHg 46%
    12:00 +8°C° 0 mm 7 m/s 744 mmHg 42%
    13:00 +9°C° 0 mm 7 m/s 743 mmHg 39%
    14:00 +7°C° 0 mm 8 m/s 742 mmHg 41%
    15:00 +7°C° 0 mm 8 m/s 742 mmHg 43%
    16:00 +7°C° 0 mm 8 m/s 741 mmHg 46%
    17:00 +6°C° 0.8 mm 8 m/s 741 mmHg 52%
    18:00 +4°C° 0.8 mm 7 m/s 742 mmHg 57%
    19:00 +3°C° 0.8 mm 7 m/s 742 mmHg 63%
    20:00 +3°C° 0 mm 6 m/s 742 mmHg 66%
    21:00 +2°C° 0 mm 6 m/s 742 mmHg 68%
    22:00 +1°C° 0 mm 6 m/s 743 mmHg 70%
    23:00 +1°C° 0.3 mm 6 m/s 743 mmHg 74%

    26 Março, Terça-feira

    Tempo Temperatura Precipitação Vento Pressão Humidade
    00:00 +1°C° 0.3 mm 6 m/s 744 mmHg 77%
    01:00 +1°C° 0.3 mm 6 m/s 744 mmHg 81%
    02:00 -1°C° 0.4 mm 6 m/s 745 mmHg 81%
    03:00 -1°C° 0.4 mm 7 m/s 745 mmHg 82%
    04:00 -1°C° 0.4 mm 7 m/s 746 mmHg 83%
    05:00 -1°C° 0 mm 7 m/s 747 mmHg 83%
    06:00 -1°C° 0 mm 6 m/s 748 mmHg 84%
    07:00 0°C° 0 mm 5 m/s 749 mmHg 84%
    08:00 -1°C° 0.1 mm 6 m/s 750 mmHg 83%
    09:00 +1°C° 0.1 mm 6 m/s 750 mmHg 81%
    10:00 +1°C° 0.1 mm 6 m/s 751 mmHg 79%
    11:00 +2°C° 0.1 mm 6 m/s 752 mmHg 77%
    12:00 +2°C° 0.1 mm 6 m/s 752 mmHg 75%
    13:00 +2°C° 0.1 mm 6 m/s 752 mmHg 73%
    14:00 +3°C° 0 mm 5 m/s 752 mmHg 69%
    15:00 +3°C° 0 mm 5 m/s 752 mmHg 65%
    16:00 +4°C° 0 mm 4 m/s 752 mmHg 61%
    17:00 +3°C° 0 mm 4 m/s 753 mmHg 64%
    18:00 +2°C° 0 mm 3 m/s 753 mmHg 67%
    19:00 +2°C° 0 mm 2 m/s 754 mmHg 70%
    20:00 +2°C° 0 mm 2 m/s 754 mmHg 73%
    21:00 +2°C° 0 mm 2 m/s 754 mmHg 75%
    22:00 +1°C° 0 mm 2 m/s 754 mmHg 77%
    23:00 +1°C° 0 mm 2 m/s 754 mmHg 78%

    27 Março, Quarta-feira

    Tempo Temperatura Precipitação Vento Pressão Humidade
    00:00 +1°C° 0 mm 2 m/s 754 mmHg 79%
    01:00 0°C° 0 mm 3 m/s 754 mmHg 80%
    02:00 -1°C° 0 mm 3 m/s 754 mmHg 79%
    03:00 -1°C° 0 mm 3 m/s 753 mmHg 79%
    04:00 -1°C° 0 mm 3 m/s 753 mmHg 79%
    05:00 0°C° 0 mm 3 m/s 753 mmHg 74%
    06:00 0°C° 0 mm 4 m/s 753 mmHg 70%
    07:00 +1°C° 0 mm 4 m/s 753 mmHg 65%
    08:00 +2°C° 0 mm 5 m/s 753 mmHg 60%
    09:00 +3°C° 0 mm 5 m/s 753 mmHg 54%
    10:00 +5°C° 0 mm 5 m/s 752 mmHg 49%
    11:00 +6°C° 0 mm 5 m/s 752 mmHg 49%
    12:00 +7°C° 0 mm 6 m/s 752 mmHg 50%
    13:00 +8°C° 0 mm 6 m/s 752 mmHg 50%
    14:00 +7°C° 0 mm 6 m/s 752 mmHg 55%
    15:00 +7°C° 0 mm 5 m/s 752 mmHg 61%
    16:00 +7°C° 0 mm 5 m/s 752 mmHg 66%
    17:00 +6°C° 0 mm 4 m/s 752 mmHg 71%
    18:00 +5°C° 0 mm 4 m/s 752 mmHg 76%
    19:00 +5°C° 0 mm 3 m/s 752 mmHg 81%
    20:00 +5°C° 0.1 mm 3 m/s 753 mmHg 83%
    21:00 +4°C° 0.1 mm 3 m/s 753 mmHg 85%
    22:00 +4°C° 0.1 mm 3 m/s 753 mmHg 87%
    23:00 +4°C° 0 mm 3 m/s 753 mmHg 88%
    Mostrar mais